Time,TemperatureF,DewpointF,PressureIn,WindDirection,WindDirectionDegrees,WindSpeedMPH,WindSpeedGustMPH,Humidity,HourlyPrecipIn,Conditions,Clouds,dailyrainin,SoftwareType,DateUTC
2013-08-02 00:02:00,52.0,41.0,-100.00,SW,225,5.0,7.0,65,-99.99,,,-99.99,,2013-08-02 07:02:00,
2013-08-02 00:12:00,52.0,41.0,-100.00,SW,225,5.0,7.0,65,-99.99,,,-99.99,,2013-08-02 07:12:00,
2013-08-02 00:22:00,52.0,41.0,-100.00,SW,225,6.0,9.0,66,-99.99,,,-99.99,,2013-08-02 07:22:00,
2013-08-02 00:44:00,51.0,41.0,-100.00,SW,225,7.0,9.0,69,-99.99,,,-99.99,,2013-08-02 07:44:00,
2013-08-02 00:53:00,51.0,41.0,-100.00,SW,225,7.0,9.0,69,-99.99,,,-99.99,,2013-08-02 07:53:00,
2013-08-02 01:02:00,50.0,41.0,-100.00,SW,225,8.0,9.0,69,-99.99,,,-99.99,,2013-08-02 08:02:00,
2013-08-02 01:12:00,50.0,41.0,-100.00,SW,225,7.0,10.0,71,-99.99,,,-99.99,,2013-08-02 08:12:00,
2013-08-02 01:22:00,50.0,41.0,-100.00,SW,225,7.0,10.0,71,-99.99,,,-99.99,,2013-08-02 08:22:00,
2013-08-02 01:33:00,50.0,41.0,-100.00,SW,225,8.0,11.0,72,-99.99,,,-99.99,,2013-08-02 08:33:00,
2013-08-02 01:43:00,49.0,41.0,-100.00,SW,225,6.0,10.0,73,-99.99,,,-99.99,,2013-08-02 08:43:00,
2013-08-02 01:54:00,49.0,41.0,-100.00,SW,225,6.0,10.0,73,-99.99,,,-99.99,,2013-08-02 08:54:00,
2013-08-02 02:02:00,49.0,41.0,-100.00,SW,225,8.0,12.0,73,-99.99,,,-99.99,,2013-08-02 09:02:00,
2013-08-02 02:12:00,49.0,41.0,-100.00,SW,225,8.0,12.0,73,-99.99,,,-99.99,,2013-08-02 09:12:00,
2013-08-02 02:22:00,49.0,41.0,-100.00,SW,225,8.0,11.0,74,-99.99,,,-99.99,,2013-08-02 09:22:00,
2013-08-02 02:33:00,49.0,41.0,-100.00,SW,225,8.0,12.0,74,-99.99,,,-99.99,,2013-08-02 09:33:00,
2013-08-02 02:43:00,49.0,41.0,-100.00,SW,225,8.0,9.0,74,-99.99,,,-99.99,,2013-08-02 09:43:00,
2013-08-02 02:53:00,49.0,41.0,-100.00,SW,225,8.0,9.0,74,-99.99,,,-99.99,,2013-08-02 09:53:00,
2013-08-02 03:02:00,49.0,41.0,-100.00,SW,225,8.0,11.0,74,-99.99,,,-99.99,,2013-08-02 10:02:00,
2013-08-02 03:12:00,49.0,41.0,-100.00,SW,225,8.0,11.0,74,-99.99,,,-99.99,,2013-08-02 10:12:00,
2013-08-02 03:23:00,48.0,41.0,-100.00,SW,225,7.0,10.0,75,-99.99,,,-99.99,,2013-08-02 10:23:00,
2013-08-02 03:33:00,48.0,41.0,-100.00,SW,225,7.0,11.0,75,-99.99,,,-99.99,,2013-08-02 10:33:00,
2013-08-02 03:43:00,48.0,41.0,-100.00,SW,225,8.0,11.0,76,-99.99,,,-99.99,,2013-08-02 10:43:00,
2013-08-02 03:52:00,48.0,41.0,-100.00,SW,225,8.0,11.0,76,-99.99,,,-99.99,,2013-08-02 10:52:00,
2013-08-02 04:02:00,48.0,41.0,-100.00,SW,225,8.0,11.0,77,-99.99,,,-99.99,,2013-08-02 11:02:00,
2013-08-02 04:12:00,48.0,41.0,-100.00,SW,225,6.0,10.0,77,-99.99,,,-99.99,,2013-08-02 11:12:00,
2013-08-02 04:22:00,48.0,41.0,-100.00,SW,225,6.0,10.0,77,-99.99,,,-99.99,,2013-08-02 11:22:00,
2013-08-02 04:32:00,48.0,41.0,-100.00,SW,225,7.0,11.0,78,-99.99,,,-99.99,,2013-08-02 11:32:00,
2013-08-02 04:42:00,48.0,41.0,-100.00,SW,225,7.0,12.0,78,-99.99,,,-99.99,,2013-08-02 11:42:00,
2013-08-02 04:52:00,48.0,41.0,-100.00,SW,225,7.0,12.0,78,-99.99,,,-99.99,,2013-08-02 11:52:00,
2013-08-02 05:02:00,48.0,41.0,-100.00,SW,225,6.0,12.0,78,-99.99,,,-99.99,,2013-08-02 12:02:00,
2013-08-02 05:12:00,48.0,42.0,-100.00,SW,225,6.0,9.0,79,-99.99,,,-99.99,,2013-08-02 12:12:00,
2013-08-02 05:22:00,48.0,42.0,-100.00,SW,225,6.0,9.0,79,-99.99,,,-99.99,,2013-08-02 12:22:00,
2013-08-02 05:32:00,47.0,41.0,-100.00,SW,225,5.0,8.0,79,-99.99,,,-99.99,,2013-08-02 12:32:00,
2013-08-02 05:42:00,47.0,41.0,-100.00,SW,225,5.0,9.0,80,-99.99,,,-99.99,,2013-08-02 12:42:00,
2013-08-02 05:52:00,47.0,41.0,-100.00,SW,225,5.0,9.0,80,-99.99,,,-99.99,,2013-08-02 12:52:00,
2013-08-02 06:02:00,47.0,41.0,-100.00,SW,225,8.0,11.0,80,-99.99,,,-99.99,,2013-08-02 13:02:00,
2013-08-02 06:12:00,47.0,41.0,-100.00,SW,225,8.0,11.0,80,-99.99,,,-99.99,,2013-08-02 13:12:00,
2013-08-02 06:22:00,47.0,41.0,-100.00,SW,225,8.0,11.0,80,-99.99,,,-99.99,,2013-08-02 13:22:00,
2013-08-02 06:33:00,47.0,41.0,-100.00,SW,225,10.0,12.0,80,-99.99,,,-99.99,,2013-08-02 13:33:00,
2013-08-02 06:42:00,46.0,41.0,-100.00,SW,225,7.0,11.0,80,-99.99,,,-99.99,,2013-08-02 13:42:00,
2013-08-02 06:52:00,46.0,41.0,-100.00,SW,225,7.0,11.0,80,-99.99,,,-99.99,,2013-08-02 13:52:00,
2013-08-02 07:02:00,46.0,41.0,-100.00,SW,225,7.0,12.0,80,-99.99,,,-99.99,,2013-08-02 14:02:00,
2013-08-02 07:12:00,47.0,41.0,-100.00,SW,225,8.0,14.0,80,-99.99,,,-99.99,,2013-08-02 14:12:00,
2013-08-02 07:22:00,47.0,41.0,-100.00,SW,225,8.0,14.0,80,-99.99,,,-99.99,,2013-08-02 14:22:00,
2013-08-02 07:43:00,48.0,41.0,-100.00,SW,225,10.0,16.0,78,-99.99,,,-99.99,,2013-08-02 14:43:00,
2013-08-02 07:53:00,48.0,41.0,-100.00,SW,225,10.0,16.0,78,-99.99,,,-99.99,,2013-08-02 14:53:00,
2013-08-02 08:03:00,49.0,42.0,-100.00,SW,225,8.0,15.0,76,-99.99,,,-99.99,,2013-08-02 15:03:00,
2013-08-02 08:12:00,49.0,42.0,-100.00,SW,225,8.0,15.0,76,-99.99,,,-99.99,,2013-08-02 15:12:00,
2013-08-02 08:22:00,50.0,43.0,-100.00,SW,225,12.0,14.0,75,-99.99,,,-99.99,,2013-08-02 15:22:00,
2013-08-02 08:52:00,53.0,44.0,-100.00,South,180,8.0,14.0,71,-99.99,,,-99.99,,2013-08-02 15:52:00,
2013-08-02 09:12:00,54.0,44.0,-100.00,SW,225,7.0,12.0,69,-99.99,,,-99.99,,2013-08-02 16:12:00,
2013-08-02 09:22:00,54.0,44.0,-100.00,SW,225,7.0,14.0,67,-99.99,,,-99.99,,2013-08-02 16:22:00,
2013-08-02 09:32:00,56.0,43.0,-100.00,SW,225,8.0,12.0,63,-99.99,,,-99.99,,2013-08-02 16:32:00,
2013-08-02 09:42:00,56.0,43.0,-100.00,SW,225,6.0,12.0,61,-99.99,,,-99.99,,2013-08-02 16:42:00,
2013-08-02 09:52:00,56.0,43.0,-100.00,SW,225,6.0,12.0,61,-99.99,,,-99.99,,2013-08-02 16:52:00,
2013-08-02 10:02:00,58.0,43.0,-100.00,SW,225,7.0,12.0,59,-99.99,,,-99.99,,2013-08-02 17:02:00,
2013-08-02 10:12:00,58.0,43.0,-100.00,SW,225,7.0,12.0,59,-99.99,,,-99.99,,2013-08-02 17:12:00,
2013-08-02 10:22:00,59.0,43.0,-100.00,SW,225,5.0,9.0,57,-99.99,,,-99.99,,2013-08-02 17:22:00,
2013-08-02 10:34:00,59.0,43.0,-100.00,SW,225,5.0,9.0,57,-99.99,,,-99.99,,2013-08-02 17:34:00,
2013-08-02 10:42:00,61.0,43.0,-100.00,South,180,6.0,8.0,51,-99.99,,,-99.99,,2013-08-02 17:42:00,
2013-08-02 10:52:00,61.0,43.0,-100.00,South,180,6.0,8.0,51,-99.99,,,-99.99,,2013-08-02 17:52:00,
2013-08-02 11:02:00,63.0,44.0,-100.00,SE,135,3.0,6.0,49,-99.99,,,-99.99,,2013-08-02 18:02:00,
2013-08-02 11:22:00,63.0,43.0,-100.00,NE,45,0.0,7.0,48,-99.99,,,-99.99,,2013-08-02 18:22:00,
2013-08-02 11:32:00,65.0,44.0,-100.00,East,90,4.0,8.0,46,-99.99,,,-99.99,,2013-08-02 18:32:00,
2013-08-02 11:52:00,64.0,43.0,-100.00,North,0,3.0,6.0,47,-99.99,,,-99.99,,2013-08-02 18:52:00,
2013-08-02 12:12:00,65.0,44.0,-100.00,NE,45,6.0,7.0,46,-99.99,,,-99.99,,2013-08-02 19:12:00,
2013-08-02 12:22:00,66.0,43.0,-100.00,West,270,4.0,7.0,44,-99.99,,,-99.99,,2013-08-02 19:22:00,
2013-08-02 12:32:00,67.0,44.0,-100.00,East,90,4.0,11.0,43,-99.99,,,-99.99,,2013-08-02 19:32:00,
2013-08-02 12:43:00,69.0,45.0,-100.00,East,90,4.0,7.0,41,-99.99,,,-99.99,,2013-08-02 19:43:00,
2013-08-02 12:52:00,69.0,45.0,-100.00,East,90,4.0,7.0,41,-99.99,,,-99.99,,2013-08-02 19:52:00,
2013-08-02 13:02:00,68.0,44.0,-100.00,NW,315,7.0,12.0,42,-99.99,,,-99.99,,2013-08-02 20:02:00,
2013-08-02 13:12:00,68.0,44.0,-100.00,NW,315,7.0,12.0,42,-99.99,,,-99.99,,2013-08-02 20:12:00,
2013-08-02 13:22:00,69.0,44.0,-100.00,NW,315,4.0,12.0,41,-99.99,,,-99.99,,2013-08-02 20:22:00,
2013-08-02 13:32:00,69.0,44.0,-100.00,NW,315,4.0,12.0,41,-99.99,,,-99.99,,2013-08-02 20:32:00,
2013-08-02 13:43:00,70.0,45.0,-100.00,West,270,3.0,11.0,40,-99.99,,,-99.99,,2013-08-02 20:43:00,
2013-08-02 13:52:00,70.0,45.0,-100.00,West,270,3.0,11.0,40,-99.99,,,-99.99,,2013-08-02 20:52:00,
2013-08-02 14:02:00,70.0,44.0,-100.00,West,270,4.0,10.0,39,-99.99,,,-99.99,,2013-08-02 21:02:00,
2013-08-02 14:12:00,70.0,44.0,-100.00,West,270,4.0,10.0,39,-99.99,,,-99.99,,2013-08-02 21:12:00,
2013-08-02 14:22:00,70.0,44.0,-100.00,NW,315,6.0,14.0,39,-99.99,,,-99.99,,2013-08-02 21:22:00,
2013-08-02 14:32:00,72.0,44.0,-100.00,NW,315,4.0,10.0,36,-99.99,,,-99.99,,2013-08-02 21:32:00,
2013-08-02 14:43:00,73.0,44.0,-100.00,NE,45,3.0,12.0,35,-99.99,,,-99.99,,2013-08-02 21:43:00,
2013-08-02 14:53:00,73.0,44.0,-100.00,NE,45,3.0,12.0,35,-99.99,,,-99.99,,2013-08-02 21:53:00,
2013-08-02 15:22:00,73.0,42.0,-100.00,NW,315,6.0,9.0,33,-99.99,,,-99.99,,2013-08-02 22:22:00,
2013-08-02 15:32:00,73.0,43.0,-100.00,NE,45,6.0,12.0,34,-99.99,,,-99.99,,2013-08-02 22:32:00,
2013-08-02 15:52:00,73.0,42.0,-100.00,North,0,9.0,14.0,33,-99.99,,,-99.99,,2013-08-02 22:52:00,
2013-08-02 16:02:00,73.0,42.0,-100.00,North,0,9.0,14.0,33,-99.99,,,-99.99,,2013-08-02 23:02:00,
2013-08-02 16:12:00,74.0,41.0,-100.00,NW,315,4.0,13.0,31,-99.99,,,-99.99,,2013-08-02 23:12:00,
2013-08-02 16:22:00,75.0,41.0,-100.00,NW,315,4.0,10.0,29,-99.99,,,-99.99,,2013-08-02 23:22:00,
2013-08-02 16:32:00,76.0,40.0,-100.00,North,0,3.0,10.0,28,-99.99,,,-99.99,,2013-08-02 23:32:00,
2013-08-02 16:43:00,76.0,39.0,-100.00,North,0,6.0,9.0,27,-99.99,,,-99.99,,2013-08-02 23:43:00,
2013-08-02 16:53:00,76.0,39.0,-100.00,North,0,6.0,9.0,27,-99.99,,,-99.99,,2013-08-02 23:53:00,
2013-08-02 17:02:00,75.0,39.0,-100.00,West,270,4.0,9.0,27,-99.99,,,-99.99,,2013-08-03 00:02:00,
2013-08-02 17:12:00,75.0,39.0,-100.00,West,270,4.0,9.0,27,-99.99,,,-99.99,,2013-08-03 00:12:00,
2013-08-02 17:22:00,75.0,39.0,-100.00,NW,315,4.0,11.0,27,-99.99,,,-99.99,,2013-08-03 00:22:00,
2013-08-02 17:43:00,73.0,37.0,-100.00,North,0,8.0,13.0,27,-99.99,,,-99.99,,2013-08-03 00:43:00,
2013-08-02 17:52:00,74.0,38.0,-100.00,NW,315,6.0,9.0,27,-99.99,,,-99.99,,2013-08-03 00:52:00,
2013-08-02 18:12:00,72.0,38.0,-100.00,North,0,9.0,13.0,29,-99.99,,,-99.99,,2013-08-03 01:12:00,
2013-08-02 18:22:00,70.0,39.0,-100.00,NW,315,12.0,19.0,32,-99.99,,,-99.99,,2013-08-03 01:22:00,
2013-08-02 18:32:00,70.0,39.0,-100.00,NW,315,12.0,19.0,32,-99.99,,,-99.99,,2013-08-03 01:32:00,
2013-08-02 18:42:00,70.0,39.0,-100.00,NW,315,8.0,14.0,33,-99.99,,,-99.99,,2013-08-03 01:42:00,
2013-08-02 18:53:00,70.0,39.0,-100.00,NW,315,8.0,14.0,33,-99.99,,,-99.99,,2013-08-03 01:53:00,
2013-08-02 19:02:00,68.0,39.0,-100.00,NW,315,11.0,17.0,35,-99.99,,,-99.99,,2013-08-03 02:02:00,
2013-08-02 19:12:00,68.0,39.0,-100.00,NW,315,11.0,17.0,35,-99.99,,,-99.99,,2013-08-03 02:12:00,
2013-08-02 19:22:00,68.0,40.0,-100.00,NW,315,8.0,16.0,36,-99.99,,,-99.99,,2013-08-03 02:22:00,
2013-08-02 19:32:00,68.0,40.0,-100.00,NW,315,8.0,16.0,36,-99.99,,,-99.99,,2013-08-03 02:32:00,
2013-08-02 19:43:00,69.0,39.0,-100.00,NW,315,9.0,16.0,33,-99.99,,,-99.99,,2013-08-03 02:43:00,
2013-08-02 19:52:00,69.0,39.0,-100.00,NW,315,9.0,16.0,33,-99.99,,,-99.99,,2013-08-03 02:52:00,
2013-08-02 20:02:00,69.0,39.0,-100.00,NW,315,10.0,16.0,33,-99.99,,,-99.99,,2013-08-03 03:02:00,
2013-08-02 20:22:00,69.0,39.0,-100.00,NW,315,6.0,14.0,33,-99.99,,,-99.99,,2013-08-03 03:22:00,
2013-08-02 20:32:00,68.0,38.0,-100.00,NW,315,5.0,16.0,34,-99.99,,,-99.99,,2013-08-03 03:32:00,
2013-08-02 20:43:00,67.0,37.0,-100.00,NW,315,2.0,8.0,34,-99.99,,,-99.99,,2013-08-03 03:43:00,
2013-08-02 20:53:00,67.0,37.0,-100.00,NW,315,2.0,8.0,34,-99.99,,,-99.99,,2013-08-03 03:53:00,
2013-08-02 21:02:00,66.0,37.0,-100.00,West,270,3.0,6.0,35,-99.99,,,-99.99,,2013-08-03 04:02:00,
2013-08-02 21:12:00,66.0,37.0,-100.00,West,270,3.0,6.0,35,-99.99,,,-99.99,,2013-08-03 04:12:00,
2013-08-02 21:22:00,65.0,38.0,-100.00,West,270,3.0,6.0,37,-99.99,,,-99.99,,2013-08-03 04:22:00,
2013-08-02 21:32:00,65.0,38.0,-100.00,West,270,3.0,6.0,37,-99.99,,,-99.99,,2013-08-03 04:32:00,
2013-08-02 21:53:00,64.0,38.0,-100.00,North,0,4.0,12.0,38,-99.99,,,-99.99,,2013-08-03 04:53:00,
2013-08-02 22:22:00,63.0,38.0,-100.00,North,0,4.0,9.0,39,-99.99,,,-99.99,,2013-08-03 05:22:00,
2013-08-02 22:32:00,62.0,38.0,-100.00,North,0,0.0,4.0,40,-99.99,,,-99.99,,2013-08-03 05:32:00,
2013-08-02 22:52:00,61.0,38.0,-100.00,West,270,1.0,3.0,42,-99.99,,,-99.99,,2013-08-03 05:52:00,
2013-08-02 23:02:00,60.0,38.0,-100.00,West,270,2.0,3.0,44,-99.99,,,-99.99,,2013-08-03 06:02:00,
2013-08-02 23:22:00,60.0,40.0,-100.00,SW,225,1.0,2.0,47,-99.99,,,-99.99,,2013-08-03 06:22:00,
2013-08-02 23:32:00,59.0,40.0,-100.00,South,180,2.0,3.0,50,-99.99,,,-99.99,,2013-08-03 06:32:00,
2013-08-02 23:42:00,59.0,41.0,-100.00,SW,225,4.0,6.0,51,-99.99,,,-99.99,,2013-08-03 06:42:00,
2013-08-02 23:52:00,59.0,41.0,-100.00,SW,225,4.0,6.0,51,-99.99,,,-99.99,,2013-08-03 06:52:00,